Flag for Switzerland Weather past 2 weeks in Winterthur, Switzerland

Now
57 °F

Light rain. Passing clouds.


Feels Like: 57 °F
Forecast: 52 / 80 °F
Wind: 5 mph from Northwest

Location: Zurich-Kloten

Current Time: Aug 1, 2015 at 6:40:52 AM

Latest Report: Aug 1, 2015 at 5:50 AM


Visibility: N/A

Pressure: 29.92 "Hg

Humidity: 88%

Dew point: 54 °F

Location of WinterthurLocation

Historic Weather in Winterthur — Graph

°F

Winterthur temperature yesterday

Maximum temperature yesterday: 75 °F (at 4:20 PM)
Minimum temperature yesterday: 48 °F (at 6:20 AM)
Average temperature yesterday: 64 °F

Past Weeks' High & Low Weather Summary

 TemperatureHumidityPressure
High95 °F (Jul 22, 3:20 PM)100% (Jul 19, 4:20 AM)30.21 "Hg (Jul 19, 4:20 AM)
Low48 °F (Jul 31, 6:20 AM)28% (Jul 21, 5:50 PM)29.74 "Hg (Jul 24, 5:20 PM)
Average70 °F66%29.98 "Hg
* Reported Jul 17 4:20 AM — Aug 1 4:50 AM, Winterthur, Weather by CustomWeather, © 2015

Note: Actual official high and low records may vary slightly from our data, if they occured in-between our weather recording intervals... More about our weather records

Advertising

Winterthur weather history for previous 24 hours

 ConditionsComfort  
Time TempWeatherWind HumidityBarometerVisibility
4:50 AM
Sat, Aug 1
57 °FLight rain. Clear.2 mph88%29.92 "HgN/A
4:20 AM57 °FClear.3 mph88%29.92 "Hg10 mi
3:50 AM57 °FClear.1 mph82%29.92 "Hg10 mi
3:20 AM57 °FClear.No wind82%29.92 "Hg10 mi
2:50 AM59 °FClear.2 mph77%29.92 "Hg10 mi
1:50 AM57 °FClear.2 mph77%29.92 "Hg10 mi
1:20 AM61 °FClear.1 mph72%29.92 "Hg10 mi
12:50 AM63 °FClear.7 mph68%29.92 "Hg10 mi
12:20 AM63 °FClear.2 mph68%29.92 "Hg10 mi
11:50 PM
Fri, Jul 31
63 °FPassing clouds.3 mph68%29.92 "HgN/A
11:20 PM63 °FClear.2 mph68%29.92 "Hg10 mi
10:50 PM63 °FClear.5 mph68%29.92 "Hg10 mi
10:20 PM63 °FClear.3 mph59%29.92 "Hg10 mi
9:50 PM64 °FSunny.3 mph56%29.92 "Hg10 mi
9:20 PM70 °FSunny.2 mph43%29.92 "Hg10 mi
8:50 PM70 °FPassing clouds.5 mph43%29.92 "HgN/A
8:20 PM72 °FPassing clouds.6 mph41%29.92 "HgN/A
7:50 PM72 °FPassing clouds.6 mph41%29.92 "HgN/A
7:20 PM73 °FSunny.6 mph38%29.92 "Hg10 mi
6:50 PM73 °FPassing clouds.8 mph38%29.92 "HgN/A
6:20 PM73 °FPassing clouds.8 mph38%29.92 "HgN/A
5:50 PM73 °FPassing clouds.8 mph41%29.95 "HgN/A
5:20 PM75 °FPassing clouds.9 mph36%29.95 "HgN/A
4:50 PM75 °FPassing clouds.8 mph36%29.95 "HgN/A
4:20 PM75 °FPassing clouds.9 mph34%29.95 "HgN/A
3:50 PM73 °FPassing clouds.8 mph36%29.95 "HgN/A
3:20 PM73 °FPassing clouds.10 mph38%29.98 "HgN/A
2:50 PM73 °FPassing clouds.9 mph36%29.98 "HgN/A
2:20 PM73 °FPassing clouds.10 mph38%29.98 "HgN/A
1:50 PM72 °FPassing clouds.10 mph41%29.98 "HgN/A
1:20 PM72 °FPassing clouds.12 mph41%29.98 "HgN/A
12:50 PM70 °FPassing clouds.13 mph43%30.01 "HgN/A
12:20 PM70 °FPassing clouds.13 mph46%30.01 "HgN/A
11:50 AM68 °FPassing clouds.10 mph46%30.01 "HgN/A
11:20 AM66 °FPassing clouds.12 mph49%30.04 "HgN/A
10:50 AM66 °FSunny.13 mph49%30.04 "Hg10 mi
10:20 AM63 °FPassing clouds.13 mph52%30.04 "HgN/A
9:20 AM61 °FSunny.6 mph59%30.07 "Hg10 mi
8:50 AM59 °FSunny.2 mph63%30.07 "Hg10 mi
8:20 AM57 °FSunny.2 mph67%30.07 "Hg10 mi
7:50 AM55 °FPassing clouds.3 mph72%30.07 "HgN/A
7:20 AM54 °FSunny.No wind77%30.07 "Hg10 mi
6:50 AM50 °FPassing clouds.No wind82%30.07 "HgN/A
6:20 AM48 °FPassing clouds.1 mph82%30.07 "HgN/A
Weather by CustomWeather, © 2015

See weather overviewHow to use our weather pages